TimeCST,TemperatureF,Dew PointF,Humidity,Sea Level PressureIn,VisibilityMPH,Wind Direction,Wind SpeedMPH,Gust SpeedMPH,PrecipitationIn,Events,Conditions,WindDirDegrees,DateUTC
12:53 AM,28.0,16.0,61,30.19,10.0,SE,3.5,-,N/A,,Overcast,130,2013-01-25 06:53:00
1:04 AM,28.4,17.6,64,30.16,10.0,Calm,Calm,-,N/A,,Overcast,0,2013-01-25 07:04:00
1:26 AM,28.4,17.6,64,30.16,10.0,Calm,Calm,-,N/A,,Overcast,0,2013-01-25 07:26:00
1:53 AM,28.0,16.0,61,30.20,10.0,West,3.5,-,N/A,,Overcast,270,2013-01-25 07:53:00
2:53 AM,28.0,17.1,63,30.16,10.0,South,4.6,-,N/A,,Overcast,180,2013-01-25 08:53:00
3:53 AM,28.0,17.1,63,30.14,10.0,Calm,Calm,-,N/A,,Overcast,0,2013-01-25 09:53:00
4:08 AM,28.4,17.6,64,30.12,10.0,Calm,Calm,-,N/A,,Overcast,0,2013-01-25 10:08:00
4:53 AM,28.0,19.0,69,30.14,10.0,SSW,4.6,-,N/A,,Overcast,210,2013-01-25 10:53:00
5:43 AM,28.4,19.4,69,30.10,10.0,WSW,5.8,-,N/A,,Overcast,240,2013-01-25 11:43:00
5:53 AM,28.0,19.9,72,30.13,10.0,West,3.5,-,N/A,,Overcast,260,2013-01-25 11:53:00
6:53 AM,28.0,21.0,75,30.16,10.0,WNW,5.8,-,N/A,,Overcast,300,2013-01-25 12:53:00
7:20 AM,28.4,21.2,74,30.12,10.0,WNW,4.6,-,N/A,,Overcast,290,2013-01-25 13:20:00
7:29 AM,28.4,21.2,74,30.11,9.0,West,4.6,-,N/A,,Overcast,260,2013-01-25 13:29:00
7:53 AM,28.0,21.0,75,30.16,8.0,West,5.8,-,N/A,,Scattered Clouds,280,2013-01-25 13:53:00
8:08 AM,28.4,21.2,74,30.13,8.0,WNW,4.6,-,N/A,,Scattered Clouds,290,2013-01-25 14:08:00
8:23 AM,28.4,21.2,74,30.14,8.0,West,6.9,-,N/A,,Mostly Cloudy,280,2013-01-25 14:23:00
8:39 AM,30.2,21.2,69,30.15,8.0,WNW,8.1,-,N/A,,Overcast,290,2013-01-25 14:39:00
8:53 AM,30.0,23.0,75,30.19,8.0,WNW,9.2,-,N/A,,Overcast,290,2013-01-25 14:53:00
9:53 AM,33.1,25.0,72,30.20,8.0,NW,8.1,-,N/A,,Overcast,310,2013-01-25 15:53:00
10:53 AM,37.0,27.0,67,30.20,8.0,NW,8.1,-,N/A,,Overcast,310,2013-01-25 16:53:00
11:53 AM,42.1,28.9,60,30.18,10.0,North,8.1,-,N/A,,Scattered Clouds,10,2013-01-25 17:53:00
12:53 PM,44.1,28.9,55,30.17,10.0,WNW,8.1,-,N/A,,Clear,290,2013-01-25 18:53:00
1:53 PM,46.9,28.0,48,30.17,10.0,WNW,8.1,-,N/A,,Clear,290,2013-01-25 19:53:00
2:53 PM,48.9,27.0,43,30.17,10.0,North,8.1,-,N/A,,Clear,350,2013-01-25 20:53:00
3:53 PM,48.0,26.1,42,30.17,10.0,NW,6.9,-,N/A,,Clear,310,2013-01-25 21:53:00
4:53 PM,45.0,25.0,46,30.18,10.0,WNW,3.5,-,N/A,,Clear,300,2013-01-25 22:53:00
5:53 PM,39.9,25.0,55,30.20,10.0,NW,3.5,-,N/A,,Clear,310,2013-01-25 23:53:00
6:53 PM,37.9,25.0,60,30.21,10.0,Calm,Calm,-,N/A,,Clear,0,2013-01-26 00:53:00
7:53 PM,39.0,24.1,55,30.22,10.0,West,3.5,-,N/A,,Clear,270,2013-01-26 01:53:00
8:53 PM,37.9,24.1,57,30.24,10.0,NW,4.6,-,N/A,,Clear,320,2013-01-26 02:53:00
9:53 PM,36.0,23.0,59,30.25,10.0,NNW,4.6,-,N/A,,Clear,330,2013-01-26 03:53:00
10:53 PM,36.0,21.9,57,30.25,10.0,Calm,Calm,-,N/A,,Clear,0,2013-01-26 04:53:00
11:53 PM,35.1,21.0,57,30.26,10.0,Calm,Calm,-,N/A,,Clear,0,2013-01-26 05:53:00